Theta_e
346 343 337 335 335 332 328 328 331 329 328 326 325 325 326 322 323 325 322 322 323 321
334 333 332 333 330 326 329 326 326 326 326 325 324 325 326 323 324 323 322 321 321 319
329 328 327 326 325 326 327 326 325 324 324 324 324 324 324 321 322 321 322 320 319 319
325 325 325 324 324 325 326 324 322 321 321 321 321 323 323 322 322 319 320 320 318 318
323 324 323 322 323 324 322 322 321 321 320 320 320 322 321 317 316 316 316 316 316 315
321 321 321 321 322 321 321 321 320 320 319 319 317 314 315 314 314 315 315 316 315 315
319 319 319 320 320 320 320 319 320 320 318 317 311 308 308 310 311 312 314 315 315 315
317 318 317 318 319 320 320 318 317 317 317 317 308 302 301 304 307 311 313 314 315 315
315 315 316 317 318 317 317 317 316 316 314 312 305 298 299 300 303 310 313 313 315 316
313 312 313 315 314 314 314 316 315 314 313 310 305 297 296 299 304 307 313 313 314 315
309 310 312 312 312 314 316 316 314 313 312 310 301 297 296 297 308 309 312 313 316 314
308 308 308 308 311 312 314 314 314 312 309 308 303 297 296 298 307 305 309 312 310 311
308 307 306 309 311 312 313 313 311 310 309 304 305 296 295 295 302 301 303 311 312 303
307 309 310 310 311 309 311 312 309 306 309 306 300 300 294 293 298 299 301 307 307 307
Wind_Speed
8 7 7 10 7 7 7 6 4 4 4 3 4 4 4 4 3 3 3 6 5 5
12 13 8 9 9 6 5 5 4 4 3 3 4 3 4 4 5 4 3 4 5 4
13 11 10 9 9 7 5 4 4 4 3 3 3 3 4 4 5 5 4 3 5 5
11 10 9 8 7 5 4 3 4 4 4 4 4 4 3 5 4 5 4 5 6 7
10 9 8 6 5 5 4 4 5 5 5 4 5 3 5 10 10 11 9 8 8 8
9 8 7 6 5 5 4 5 5 5 4 5 13 13 12 11 11 11 10 8 9 9
8 7 6 5 5 5 5 5 5 7 12 9 12 13 12 12 11 11 9 8 9 9
7 7 7 5 5 4 5 9 9 8 8 9 12 10 12 11 10 10 8 7 7 8
6 7 5 4 5 8 7 8 6 9 8 8 7 13 18 13 9 8 7 6 6 6
7 7 6 7 9 6 6 5 5 8 7 7 8 13 15 18 7 6 5 5 6 5
7 7 8 9 7 6 5 5 6 7 6 7 8 13 15 19 9 8 7 6 5 5
8 8 8 6 5 5 5 6 5 7 8 7 8 11 15 15 9 10 9 7 4 5
8 6 6 5 5 4 4 4 6 6 5 9 6 13 15 15 7 10 8 7 6 6
7 4 7 5 4 4 4 4 8 6 4 9 8 11 17 20 8 7 7 7 6 7
Wind_Direction
94 88 64 51 62 81 87 87 77 72 67 48 35 28 20 315 23 324 335 306 309 296
76 75 81 74 74 60 86 137 87 75 52 38 24 13 21 326 319 10 337 298 327 345
82 81 80 78 79 79 67 71 68 54 28 28 12 20 19 343 315 301 350 320 322 301
96 91 85 79 79 86 86 52 56 25 14 7 359 34 323 294 304 326 317 321 329 325
94 90 83 81 71 74 49 47 44 23 7 3 18 325 356 17 1 354 358 348 2 350
91 85 81 74 58 47 28 43 38 23 352 10 42 32 19 10 352 343 334 353 349 344
86 84 75 67 52 41 29 37 25 32 41 32 53 27 7 356 344 324 325 353 341 329
98 80 71 59 60 44 40 39 31 37 46 29 53 23 6 352 330 309 335 340 330 334
75 80 67 61 67 52 44 48 39 47 47 53 55 15 7 349 311 309 322 327 320 314
66 65 51 55 56 35 49 54 52 68 70 69 45 17 353 340 304 303 344 333 332 328
51 51 53 55 47 23 5 49 63 69 48 63 52 16 356 344 332 6 336 324 337 350
53 54 57 54 41 9 10 17 75 68 62 42 52 13 10 357 358 347 341 333 42 33
51 60 59 48 35 5 356 44 59 80 92 61 44 32 17 6 347 350 334 1 340 29
39 346 73 49 20 11 336 54 73 39 42 78 51 25 9 354 343 354 336 337 353 335